Regional Weather Roundup
Issued by NWS

Home | Current Version | Previous Version | Text Only | Print | Product List | Glossary Off
Versions: 1 2 3 4 5 6 7 8 9 10 11 12 13 14 15 16 17 18 19 20 21 22 23 24 25 26 27 28 29 30 31 32 33 34 35 36 37 38 39 40 41 42 43 44 45 46 47 48 49 50

000
ASUS43 KIND 250600
RWRIN

WEATHER ROUNDUP FOR INDIANA
NATIONAL WEATHER SERVICE INDIANAPOLIS IN
200 AM EDT TUE JUL 25 2017

NOTE: "FAIR" INDICATES FEW OR NO CLOUDS BELOW 12,000 FEET WITH NO
SIGNIFICANT WEATHER AND/OR OBSTRUCTIONS TO VISIBILITY.

* - STATION DOES NOT REPORT WEATHER SUCH AS PRECIPITATION OR FOG.

+ - STATION NOT QUALITY CONTROLLED BY THE NATIONAL WEATHER SERVICE.
    USE DATA WITH CAUTION...ESPECIALLY DEWPOINT AND RELATIVE
    HUMIDITY OBSERVATIONS.

INZ001>003-010>013-019-020-250700-
NORTHWEST INDIANA

CITY           SKY/WX    TMP DP  RH WIND       PRES   REMARKS
MONTICELLO +   CLEAR     62  60  91 E3        30.12R
6HR MIN TEMP:  62; 6HR MAX TEMP:  74;


$$

LMZ046-743>745-250700-
SOUTHERN LAKE MICHIGAN

STATION/POSITION TIME  TEMP    WIND        PRES    WAVE
                       AIR SEA DIR/SP/G            HT
                 (UTC) (F)     (DEG/KT/KT) (MB)    (FT)
BURNS HARBOR     0540   67      90/  8/  9 1020.7R
MICHIGAN CITY    0530   65      80/  7/  8   N/A
5NW MICH CITY    0550   68 74  100/  8/ 10   N/A     4

$$

INZ004-005-014>016-021>024-250700-
NORTH CENTRAL INDIANA

CITY           SKY/WX    TMP DP  RH WIND       PRES   REMARKS
GOSHEN         CLEAR     57  53  86 CALM      30.14R
6HR MIN TEMP:  57; 6HR MAX TEMP:  74;

SOUTH BEND     CLEAR     61  60  97 CALM      30.14S
6HR MIN TEMP:  60; 6HR MAX TEMP:  73;


$$

INZ006>009-017-018-025>027-250700-
NORTHEAST INDIANA

CITY           SKY/WX    TMP DP  RH WIND       PRES   REMARKS
FORT WAYNE     PTCLDY    59  57  93 CALM      30.15R
6HR MIN TEMP:  59; 6HR MAX TEMP:  73;

KENDALLVILLE + CLEAR     56  56 100 CALM      30.16R FOG

$$

INZ028-029-035-036-043>045-051>053-250700-
WEST CENTRAL INDIANA

CITY           SKY/WX    TMP DP  RH WIND       PRES   REMARKS
LAFAYETTE      CLEAR     64  60  87 E9        30.11R
6HR MIN TEMP:  64; 6HR MAX TEMP:  75;

TERRE HAUTE    CLEAR     67  63  87 NE5       30.09R
6HR MIN TEMP:  66; 6HR MAX TEMP:  79;


$$

INZ030>032-037>040-046>048-054>057-064-065-250700-
CENTRAL INDIANA

CITY           SKY/WX    TMP DP  RH WIND       PRES   REMARKS
GREENWOOD *+   CLEAR    N/A N/A N/A E6        30.12R
INDIANAPOLIS   CLEAR     68  58  70 E8        30.11R
6HR MIN TEMP:  68; 6HR MAX TEMP:  79;

-EAGLE CREEK   CLEAR     66  58  75 E8        30.11R
6HR MIN TEMP:  66; 6HR MAX TEMP:  78;

KOKOMO +       CLEAR     62  59  90 E6        30.14R
6HR MIN TEMP:  61; 6HR MAX TEMP:  74; 6HR PCP: TRACE;

MT COMFORT *+  CLEAR     61  59  94 E5        30.12S
SHELBYVILLE    CLEAR     63  58  83 NE7       30.11R
6HR MIN TEMP:  63; 6HR MAX TEMP:  78;


$$

INZ033-034-041-042-049-050-058-059-250700-
EAST CENTRAL INDIANA

CITY           SKY/WX    TMP DP  RH WIND       PRES   REMARKS
MUNCIE         CLEAR     61  57  87 E5        30.14R
6HR MIN TEMP:  61; 6HR MAX TEMP:  75;

RICHMOND +     CLEAR     55  55 100 NE6       30.14R

$$

INZ060-061-067>069-081>083-085>088-250700-
SOUTHWEST INDIANA

CITY           SKY/WX    TMP DP  RH WIND       PRES   REMARKS
EVANSVILLE     PTCLDY    72  68  87 NE7       30.05R
6HR MIN TEMP:  72; 6HR MAX TEMP:  85;

HUNTINGBURG *+ CLEAR     71  69  93 NE5       30.06R
6HR MIN TEMP:  71; 6HR MAX TEMP:  82;


$$

INZ062-063-066-070>080-084-089>092-250700-
SOUTH CENTRAL AND SOUTHEAST INDIANA

CITY           SKY/WX    TMP DP  RH WIND       PRES   REMARKS
BLOOMINGTON    CLEAR     69  61  75 E8        30.09R
6HR MIN TEMP:  69; 6HR MAX TEMP:  80;

MADISON *+     CLEAR     68  61  77 NE7       30.12R
SEYMOUR +      CLEAR    N/A N/A N/A E5        30.09R

$$





USA.gov is the U.S. government's official web portal to all federal, state and local government web resources and services.